Greer, SC

7:01 AM EST on February 10, 2016 (GMT -0500)
Greenville-Spartanburg International

Weather History for KGSP - January, 2013

Change the Weather History Date:

Tuesday, January 29, 2013

  Actual Average Record
Temperature  
Mean Temperature 56 °F 43 °F  
Max Temperature 70 °F 54 °F 78 °F (2002)
Min Temperature 42 °F 33 °F 6 °F (1897)
Degree Days  
Heating Degree Days 9 22  
Month to date heating degree days 523 661  
Since 1 July heating degree days 1570 1864  
Cooling Degree Days 0 0  
Month to date cooling degree days 0 0  
Year to date cooling degree days 0 0  
Growing Degree Days 6 (Base 50)    
Moisture  
Dew Point 52 °F    
Average Humidity 81    
Maximum Humidity 100    
Minimum Humidity 61    
Precipitation  
Precipitation T in 0.12 in 1.00 in (1890)
Month to date precipitation 4.01 3.57  
Year to date precipitation 4.01 3.57  
Snow  
Snow 0.00 in 0.10 in 5.00 in (1930)
Month to date snowfall T 2.2  
Since 1 July snowfall T 2.7  
Snow Depth 0.00 in    
Sea Level Pressure  
Sea Level Pressure 30.16 in    
Wind  
Wind Speed 8 mph (SW)    
Max Wind Speed 17 mph    
Max Gust Speed 25 mph    
Visibility 7 miles    
Events      
T = Trace of Precipitation, MM = Missing Value Source: NWS Daily Summary

Daily Weather History Graph

Daily Weather History Graph

Search for Another Location

Airport or City:

Trip Planner

Search our weather history database for the weather conditions in past years. The results will help you decide how hot, cold, wet, or windy it might be!

Date:

Astronomy

Jan. 29, 2013 Rise Set
Actual Time 7:29 AM EST 5:55 PM EST
Civil Twilight 7:02 AM EST 6:21 PM EST
Nautical Twilight 6:32 AM EST 6:52 PM EST
Astronomical Twilight 6:02 AM EST 7:22 PM EST
Moon 8:40 PM EST (1/29) 8:33 AM EST (1/29)
Length of Visible Light 11h 19m
Length of Day
10h 25m
Waning Gibbous, 94% of the Moon is Illuminated
Jan 29
Waning Gibbous
Feb 3
Last Quarter
Feb 10
New
Feb 17
First Quarter
Feb 25
Full

Hourly Weather History & Observations

Time (EST) Temp. Windchill Dew Point Humidity Pressure Visibility Wind Dir Wind Speed Gust Speed Precip Events Conditions
12:00 AM 42.8 °F 38.0 °F 42.8 °F 100% 30.25 in 3.0 mi WSW 8.1 mph - N/A   Clear
12:11 AM 42.8 °F 38.0 °F 42.8 °F 100% 30.25 in 2.5 mi WSW 8.1 mph - N/A   Clear
12:44 AM 42.8 °F 38.6 °F 41.0 °F 93% 30.25 in 1.5 mi WSW 6.9 mph - N/A   Clear
12:53 AM 43.0 °F 38.8 °F 42.1 °F 97% 30.25 in 2.0 mi WSW 6.9 mph - N/A   Clear
1:26 AM 42.8 °F 39.3 °F 41.0 °F 93% 30.24 in 1.8 mi SW 5.8 mph - N/A   Clear
1:34 AM 42.8 °F 38.6 °F 41.0 °F 93% 30.24 in 2.0 mi SW 6.9 mph - N/A   Clear
1:53 AM 43.0 °F 38.8 °F 42.1 °F 97% 30.24 in 2.5 mi SW 6.9 mph - N/A   Clear
2:03 AM 44.6 °F 40.2 °F 42.8 °F 93% 30.23 in 3.0 mi SW 8.1 mph - N/A   Clear
2:53 AM 44.1 °F 40.1 °F 43.0 °F 96% 30.23 in 4.0 mi WSW 6.9 mph - N/A   Clear
3:53 AM 45.0 °F 40.6 °F 44.1 °F 97% 30.21 in 4.0 mi WSW 8.1 mph - N/A   Clear
4:53 AM 48.0 °F - 46.0 °F 93% 30.20 in 5.0 mi SW 6.9 mph - N/A   Partly Cloudy
5:53 AM 50.0 °F - 48.0 °F 93% 30.20 in 6.0 mi WSW 9.2 mph - N/A   Clear
6:53 AM 52.0 °F - 51.1 °F 97% 30.19 in 7.0 mi SW 10.4 mph - N/A   Scattered Clouds
7:53 AM 54.0 °F - 52.0 °F 93% 30.19 in 5.0 mi SW 6.9 mph - N/A   Partly Cloudy
8:53 AM 55.9 °F - 53.1 °F 90% 30.20 in 6.0 mi SW 5.8 mph - N/A   Clear
9:10 AM 57.2 °F - 53.6 °F 88% 30.20 in 6.0 mi SW 6.9 mph - N/A   Mostly Cloudy
9:43 AM 60.8 °F - 55.4 °F 82% 30.21 in 7.0 mi WSW 10.4 mph - N/A   Overcast
9:53 AM 62.1 °F - 55.9 °F 80% 30.19 in 8.0 mi WSW 10.4 mph - N/A   Mostly Cloudy
10:24 AM 62.6 °F - 55.4 °F 77% 30.21 in 9.0 mi WSW 10.4 mph - N/A   Mostly Cloudy
10:48 AM 62.6 °F - 55.4 °F 77% 30.21 in 8.0 mi SW 10.4 mph - N/A   Overcast
10:53 AM 62.1 °F - 55.9 °F 80% 30.20 in 8.0 mi SW 9.2 mph - N/A   Overcast
11:53 AM 63.0 °F - 55.0 °F 75% 30.19 in 8.0 mi SW 5.8 mph - N/A   Overcast
12:53 PM 64.9 °F - 55.9 °F 73% 30.14 in 8.0 mi South 8.1 mph - N/A   Mostly Cloudy
1:53 PM 68.0 °F - 57.0 °F 68% 30.11 in 9.0 mi SW 11.5 mph - N/A   Overcast
2:35 PM 66.2 °F - 57.2 °F 73% 30.12 in 10.0 mi SSW 11.5 mph - N/A   Overcast
2:53 PM 69.1 °F - 57.0 °F 65% 30.10 in 10.0 mi SW 9.2 mph - N/A   Mostly Cloudy
3:53 PM 69.1 °F - 57.0 °F 65% 30.09 in 10.0 mi SSW 9.2 mph - N/A   Mostly Cloudy
4:53 PM 69.1 °F - 55.9 °F 63% 30.06 in 10.0 mi SSW 9.2 mph - N/A   Mostly Cloudy
5:53 PM 66.9 °F - 55.9 °F 68% 30.06 in 10.0 mi SSW 5.8 mph - N/A   Overcast
6:53 PM 64.9 °F - 55.9 °F 73% 30.05 in 10.0 mi Calm Calm - N/A   Overcast
7:53 PM 64.0 °F - 55.9 °F 75% 30.04 in 10.0 mi Calm Calm - N/A   Overcast
8:53 PM 62.1 °F - 55.9 °F 80% 30.04 in 10.0 mi Calm Calm - 0.00 in   Overcast
9:53 PM 62.1 °F - 57.0 °F 84% 30.01 in 10.0 mi South 6.9 mph - N/A   Overcast
10:53 PM 64.0 °F - 57.9 °F 80% 30.00 in 10.0 mi South 11.5 mph - 0.00 in   Overcast
11:53 PM 64.9 °F - 59.0 °F 81% 29.99 in 10.0 mi South 16.1 mph 25.3 mph N/A   Overcast